"Pseudo-MPEC" for P11JonL

Created 2023 Oct 3 12:22:07 UT using Find_Orb

Click here for an explanation of pseudo-MPECs

 
 Astrometry: 
     P11JonL* C2023 09 13$8+BN)(W[BGc\^,ZstjHYkTs/Astrometry\redacted;/clickPF51
     P11JonL  C2023 09 13kghP/p4kMo3O2Q1J]kxS?B!x30LvF[L7oB2eVW9KEh7vSYD:3c\hF51
     P11JonL  C2023 09 13IxherehFD#L6%A2k-h#9Hforh+explanationxuGW?;D\QgR?twMF51

Station data:
(F51) Pan-STARRS 1, Haleakala  (N20.707234 W156.255910)  US/Hawaii.
   Observers J. Bulger, T. Lowe, A. Schultz, M. Willman. Measurers K.
   Chambers, S. Chastel, T. de Boer, L. Denneau, J. Fairlamb, H. Flewelling,
   M. Huber, C.-C. Lin, E. Magnier, Y. Ramanjooloo, R. Wainscoat, R. Weryk.
   1.8-m Ritchey-Chrétien + CCD.

Orbital elements:  P11JonL
   Perihelion 2024 Aug 19.62166 +/- 795 TT = 14:55:11 (JD 2460542.12166)
Epoch 2023 Sep 13.0 TT = JDT 2460200.5   Ju: 0.8940              AutoNEOCP
M 339.52479029 +/- 51               (J2000 ecliptic)
n   0.05993533 +/- 0.0903           Peri.  340.15707 +/- 100
a   6.46667069 +/- 6.49             Node    48.78203 +/- 44
e   0.3764622 +/- 0.217             Incl.   26.77920 +/- 32
P  16.44                   H 14.94  G  0.15   U 11.2  SR
q 4.03221311 +/- 1.77    Q 8.90112827 +/- 59.6
From 3 observations 2023 Sept. 13 (42.3 min); mean residual 0".06
Residuals in arcseconds: 
230913 F51  .01+  .04+    230913 F51  .02-  .11-    230913 F51  .01+  .08+    

Ephemerides (geocentric):
Date (UTC) HH   RA             Dec           delta  r     elong  mag " sig PA
---- --------  ------------   ------------  ------ ------ -----  --- --------
2023 10 03 12  23 43 40.415   -34 23 32.85  3.5464 4.3594 139.9 21.5 383' 170
2023 10 03 13  23 43 38.865   -34 23 27.75  3.5466 4.3593 139.8 21.5 395' 171
2023 10 03 14  23 43 37.315   -34 23 22.64  3.5468 4.3592 139.8 21.5 407' 172
2023 10 03 15  23 43 35.766   -34 23 17.50  3.5470 4.3592 139.8 21.5 420' 173
2023 10 03 16  23 43 34.218   -34 23 12.35  3.5472 4.3591 139.7 21.5 433' 173
2023 10 03 17  23 43 32.671   -34 23 07.18  3.5473 4.3590 139.7 21.5 447' 174
2023 10 03 18  23 43 31.124   -34 23 01.99  3.5475 4.3589 139.7 21.5 461' 175
2023 10 03 19  23 43 29.578   -34 22 56.79  3.5477 4.3588 139.7 21.5 476' 176
2023 10 03 20  23 43 28.033   -34 22 51.56  3.5479 4.3588 139.6 21.5 490' 176
2023 10 03 21  23 43 26.489   -34 22 46.32  3.5481 4.3587 139.6 21.5 506' 177
2023 10 03 22  23 43 24.945   -34 22 41.05  3.5483 4.3586 139.6 21.5 521' 178
2023 10 03 23  23 43 23.402   -34 22 35.77  3.5484 4.3585 139.6 21.5 536' 178
2023 10 04 00  23 43 21.860   -34 22 30.47  3.5486 4.3585 139.5 21.5 552' 179
2023 10 04 01  23 43 20.319   -34 22 25.16  3.5488 4.3584 139.5 21.5 567'   0
2023 10 04 02  23 43 18.778   -34 22 19.82  3.5490 4.3583 139.5 21.5 582'   1
2023 10 04 03  23 43 17.238   -34 22 14.47  3.5492 4.3582 139.5 21.5 598'   1
2023 10 04 04  23 43 15.699   -34 22 09.09  3.5494 4.3581 139.4 21.5 613'   2
2023 10 04 05  23 43 14.161   -34 22 03.70  3.5495 4.3581 139.4 21.5 628'   3
2023 10 04 06  23 43 12.624   -34 21 58.29  3.5497 4.3580 139.4 21.5 642'   4
2023 10 04 07  23 43 11.087   -34 21 52.86  3.5499 4.3579 139.3 21.5 657'   5
2023 10 04 08  23 43 09.551   -34 21 47.42  3.5501 4.3578 139.3 21.5 671'   7
2023 10 04 09  23 43 08.016   -34 21 41.95  3.5503 4.3577 139.3 21.5 685'   8
2023 10 04 10  23 43 06.481   -34 21 36.47  3.5505 4.3577 139.3 21.5 700'  10
2023 10 04 11  23 43 04.947   -34 21 30.97  3.5507 4.3576 139.2 21.5 715'  13
2023 10 04 12  23 43 03.415   -34 21 25.45  3.5508 4.3575 139.2 21.5 731'  15
2023 10 04 13  23 43 01.882   -34 21 19.91  3.5510 4.3574 139.2 21.5 749'  19
2023 10 04 14  23 43 00.351   -34 21 14.35  3.5512 4.3573 139.2 21.5 770'  22
2023 10 04 15  23 42 58.821   -34 21 08.77  3.5514 4.3573 139.1 21.5 794'  26
2023 10 04 16  23 42 57.291   -34 21 03.18  3.5516 4.3572 139.1 21.5 820'  30
2023 10 04 17  23 42 55.762   -34 20 57.57  3.5518 4.3571 139.1 21.5 847'  34
2023 10 04 18  23 42 54.234   -34 20 51.94  3.5520 4.3570 139.0 21.5 873'  37
2023 10 04 19  23 42 52.706   -34 20 46.29  3.5522 4.3570 139.0 21.5 896'  40
2023 10 04 20  23 42 51.180   -34 20 40.62  3.5524 4.3569 139.0 21.5 916'  42
2023 10 04 21  23 42 49.654   -34 20 34.94  3.5526 4.3568 139.0 21.5 933'  44
2023 10 04 22  23 42 48.129   -34 20 29.23  3.5527 4.3567 138.9 21.5 946'  45
2023 10 04 23  23 42 46.605   -34 20 23.51  3.5529 4.3566 138.9 21.5 957'  47
2023 10 05 00  23 42 45.081   -34 20 17.77  3.5531 4.3566 138.9 21.5 966'  48
2023 10 05 01  23 42 43.559   -34 20 12.01  3.5533 4.3565 138.8 21.5 974'  49
2023 10 05 02  23 42 42.037   -34 20 06.23  3.5535 4.3564 138.8 21.5 980'  50
2023 10 05 03  23 42 40.516   -34 20 00.43  3.5537 4.3563 138.8 21.5 984'  51
2023 10 05 04  23 42 38.996   -34 19 54.62  3.5539 4.3562 138.8 21.5 988'  51
2023 10 05 05  23 42 37.477   -34 19 48.79  3.5541 4.3562 138.7 21.5 991'  52
2023 10 05 06  23 42 35.958   -34 19 42.94  3.5543 4.3561 138.7 21.5 994'  53
2023 10 05 07  23 42 34.441   -34 19 37.07  3.5545 4.3560 138.7 21.5 996'  53
2023 10 05 08  23 42 32.924   -34 19 31.18  3.5547 4.3559 138.7 21.5 998'  54
2023 10 05 09  23 42 31.408   -34 19 25.27  3.5549 4.3559 138.6 21.5  17d  54
2023 10 05 10  23 42 29.893   -34 19 19.35  3.5551 4.3558 138.6 21.5  17d  55
2023 10 05 11  23 42 28.378   -34 19 13.40  3.5553 4.3557 138.6 21.5  17d  55